Вернуться в каталог

KUIPER-00118

АктивенСвязьLEO
NORAD 65154·PAYLOAD·🇺🇸 United States

Запущен Aug 11, 2025 с Cape Canaveral Space Force Station

Loading…

Ближайшие Пролёты (ближайшие 24 часа)

TLE

СвежийSource: CelesTrak SupGP

Эпоха: Sep 14, 2026, 22:53 UTC

1 65154C 25171Y   26257.95388889  .00006723  00000+0  88038-3 0  2571
2 65154  51.8994  58.6521 0000576  86.6721 142.7080 14.79908152    13

Отслеживайте KUIPER-00118 в реальном времени с AllMySat

Download on the App Store